Home   Weather   Saint Anne, Alderney   Past weeks
Flag for Guernsey

Past Weather in Saint Anne, Alderney, Guernsey — Yesterday and Last 2 Weeks

Now
66 °F

Passing clouds.


Feels Like: 66 °F
Forecast: 67 / 62 °F
Wind: 9 mph from Southwest

Location: Alderney / Channel Island

Current Time: Aug 25, 2019 at 4:39:15 pm

Latest Report: Aug 25, 2019 at 3:50 pm


Visibility: N/A

Pressure: 30.09 "Hg

Humidity: 83%

Dew Point: 61 °F

Location of Saint Anne, AlderneyLocation

Past Weather in Saint Anne, Alderney — Graph

°F

Saint Anne, Alderney Temperature Yesterday

Maximum temperature yesterday: 81 °F (at 2:20 pm)
Minimum temperature yesterday: 68 °F (at 8:20 am)
Average temperature yesterday: 75 °F

High & Low Weather Summary for the Past Weeks

 TemperatureHumidityPressure
High81 °F (Aug 24, 2:20 pm)100% (Aug 14, 12:20 pm)30.36 "Hg (Aug 14, 12:20 pm)
Low55 °F (Aug 13, 7:50 am)39% (Aug 24, 2:20 pm)29.71 "Hg (Aug 18, 8:20 am)
Average64 °F79%30.05 "Hg
* Reported Aug 10 3:20 pm — Aug 25 3:20 pm, Saint Anne, Alderney. Weather by CustomWeather, © 2019

Note: Actual official high and low records may vary slightly from our data, if they occured in-between our weather recording intervals... More about our weather records

Advertising

Saint Anne, Alderney Weather History for the Previous 24 Hours

Scroll right to see more
 ConditionsComfort  
Time TempWeatherWind HumidityBarometerVisibility
3:20 pm
Sun, Aug 25
66 °FPassing clouds.9 mph78%30.09 "HgN/A
2:50 pm66 °FPassing clouds.9 mph83%30.09 "HgN/A
2:20 pm66 °FPassing clouds.9 mph78%30.09 "HgN/A
1:50 pm66 °FPassing clouds.9 mph83%30.09 "HgN/A
1:20 pm66 °FPartly sunny.10 mph83%30.09 "HgN/A
12:50 pm66 °FPartly sunny.8 mph83%30.09 "HgN/A
12:20 pm66 °FPassing clouds.8 mph83%30.09 "HgN/A
11:50 am66 °FPassing clouds.9 mph83%30.09 "HgN/A
10:50 am66 °FScattered clouds.9 mph88%30.09 "Hg4 mi
10:20 am64 °FPassing clouds.10 mph88%30.07 "Hg4 mi
9:50 am64 °FFog.12 mph88%30.07 "Hg2 mi
8:50 am63 °FFog.13 mph94%30.07 "Hg2 mi
7:20 pm
Sat, Aug 24
72 °FSunny.13 mph65%29.98 "Hg10 mi
6:50 pm72 °FSunny.13 mph65%29.98 "Hg10 mi
6:20 pm72 °FSunny.13 mph65%29.98 "Hg10 mi
5:50 pm72 °FSunny.13 mph69%30.01 "Hg10 mi
5:20 pm73 °FSunny.13 mph65%30.01 "Hg10 mi
4:50 pm77 °FSunny.12 mph57%30.01 "Hg10 mi
4:20 pm79 °FSunny.12 mph54%30.01 "Hg10 mi
Weather by CustomWeather, © 2019

See weather overview